Location: Rounton
(54.4000°N, 1.3500°W)
Time: 02:46:03
(UTC+00:00)

Transit 4A - Pass Details

Date: 04 December 2021
Orbit: 864 x 981 km, 66.8° (Epoch: 19 January)

Event Time Altitude Azimuth Distance (km) Brightness Sun altitude
Exits shadow 05:04:57 20° 204° (SSW) 2,079 9.5 -25.2°
Drops below altitude 10° 05:07:12 10° 189° (S) 2,716 10.3 -24.9°
Sets 05:10:04 0° 179° (S) 3,666 11.1 -24.5°
